Time,TemperatureF,DewpointF,PressureIn,WindDirection,WindDirectionDegrees,WindSpeedMPH,WindSpeedGustMPH,Humidity,HourlyPrecipIn,Conditions,Clouds,dailyrainin,SolarRadiationWatts/m^2,SoftwareType,DateUTC
2013-03-04 00:21:00,31.0,22.0,-100.00,NW,319,11.0,26.0,69,0.00,,,0.00,0.000000,,2013-03-04 07:21:00,
2013-03-04 00:32:00,31.0,22.0,-100.00,NW,319,11.0,26.0,69,0.00,,,0.00,0.000000,,2013-03-04 07:32:00,
2013-03-04 00:42:00,31.0,22.0,-100.00,NW,319,11.0,26.0,69,0.00,,,0.00,0.000000,,2013-03-04 07:42:00,
2013-03-04 00:51:00,31.0,22.0,-100.00,NW,319,11.0,26.0,69,0.00,,,0.00,0.000000,,2013-03-04 07:51:00,
2013-03-04 01:22:00,30.0,19.0,-100.00,NW,307,6.0,22.0,63,0.00,,,0.00,0.000000,,2013-03-04 08:22:00,
2013-03-04 01:32:00,30.0,19.0,-100.00,NW,307,6.0,22.0,63,0.00,,,0.00,0.000000,,2013-03-04 08:32:00,
2013-03-04 01:42:00,30.0,19.0,-100.00,NW,307,6.0,22.0,63,0.00,,,0.00,0.000000,,2013-03-04 08:42:00,
2013-03-04 01:52:00,30.0,19.0,-100.00,NW,307,6.0,22.0,63,0.00,,,0.00,0.000000,,2013-03-04 08:52:00,
2013-03-04 02:21:00,29.0,19.0,-100.00,NNW,327,7.0,16.0,67,0.00,,,0.00,0.000000,,2013-03-04 09:21:00,
2013-03-04 02:32:00,29.0,19.0,-100.00,NNW,327,7.0,16.0,67,0.00,,,0.00,0.000000,,2013-03-04 09:32:00,
2013-03-04 02:42:00,29.0,19.0,-100.00,NNW,327,7.0,16.0,67,0.00,,,0.00,0.000000,,2013-03-04 09:42:00,
2013-03-04 02:52:00,29.0,19.0,-100.00,NNW,327,7.0,16.0,67,0.00,,,0.00,0.000000,,2013-03-04 09:52:00,
2013-03-04 03:22:00,28.0,19.0,-100.00,WNW,289,4.0,15.0,68,0.00,,,0.00,0.000000,,2013-03-04 10:22:00,
2013-03-04 03:32:00,28.0,19.0,-100.00,WNW,289,4.0,15.0,68,0.00,,,0.00,0.000000,,2013-03-04 10:32:00,
2013-03-04 03:42:00,28.0,19.0,-100.00,WNW,289,4.0,15.0,68,0.00,,,0.00,0.000000,,2013-03-04 10:42:00,
2013-03-04 03:52:00,28.0,19.0,-100.00,WNW,289,4.0,15.0,68,0.00,,,0.00,0.000000,,2013-03-04 10:52:00,
2013-03-04 04:22:00,27.0,18.0,-100.00,WNW,283,5.0,11.0,69,0.00,,,0.00,0.000000,,2013-03-04 11:22:00,
2013-03-04 04:32:00,27.0,18.0,-100.00,WNW,283,5.0,11.0,69,0.00,,,0.00,0.000000,,2013-03-04 11:32:00,
2013-03-04 04:42:00,27.0,18.0,-100.00,WNW,283,5.0,11.0,69,0.00,,,0.00,0.000000,,2013-03-04 11:42:00,
2013-03-04 04:52:00,27.0,18.0,-100.00,WNW,283,5.0,11.0,69,0.00,,,0.00,0.000000,,2013-03-04 11:52:00,
2013-03-04 05:22:00,27.0,16.0,-100.00,WNW,291,8.0,16.0,62,0.00,,,0.00,0.000000,,2013-03-04 12:22:00,
2013-03-04 05:32:00,27.0,16.0,-100.00,WNW,291,8.0,16.0,62,0.00,,,0.00,0.000000,,2013-03-04 12:32:00,
2013-03-04 05:42:00,27.0,16.0,-100.00,WNW,291,8.0,16.0,62,0.00,,,0.00,0.000000,,2013-03-04 12:42:00,
2013-03-04 05:52:00,27.0,16.0,-100.00,WNW,291,8.0,16.0,62,0.00,,,0.00,0.000000,,2013-03-04 12:52:00,
2013-03-04 06:21:00,25.0,14.0,-100.00,NW,314,7.0,20.0,63,0.00,,,0.00,0.000000,,2013-03-04 13:21:00,
2013-03-04 06:32:00,25.0,14.0,-100.00,NW,314,7.0,20.0,63,0.00,,,0.00,0.000000,,2013-03-04 13:32:00,
2013-03-04 06:42:00,25.0,14.0,-100.00,NW,314,7.0,20.0,63,0.00,,,0.00,0.000000,,2013-03-04 13:42:00,
2013-03-04 06:51:00,25.0,14.0,-100.00,NW,314,7.0,20.0,63,0.00,,,0.00,0.000000,,2013-03-04 13:51:00,
2013-03-04 07:22:00,23.0,8.0,-100.00,NW,319,10.0,26.0,51,0.00,,,0.00,7.000000,,2013-03-04 14:22:00,
2013-03-04 07:32:00,23.0,8.0,-100.00,NW,319,10.0,26.0,51,0.00,,,0.00,7.000000,,2013-03-04 14:32:00,
2013-03-04 07:42:00,23.0,8.0,-100.00,NW,319,10.0,26.0,51,0.00,,,0.00,7.000000,,2013-03-04 14:42:00,
2013-03-04 07:52:00,23.0,8.0,-100.00,NW,319,10.0,26.0,51,0.00,,,0.00,7.000000,,2013-03-04 14:52:00,
2013-03-04 08:22:00,25.0,7.0,-100.00,NW,316,13.0,34.0,46,0.00,,,0.00,94.000000,,2013-03-04 15:22:00,
2013-03-04 08:32:00,25.0,7.0,-100.00,NW,316,13.0,34.0,46,0.00,,,0.00,94.000000,,2013-03-04 15:32:00,
2013-03-04 08:42:00,25.0,7.0,-100.00,NW,316,13.0,34.0,46,0.00,,,0.00,94.000000,,2013-03-04 15:42:00,
2013-03-04 08:52:00,25.0,7.0,-100.00,NW,316,13.0,34.0,46,0.00,,,0.00,94.000000,,2013-03-04 15:52:00,
2013-03-04 09:21:00,25.0,6.0,-100.00,NW,308,15.0,29.0,44,0.00,,,0.00,354.000000,,2013-03-04 16:21:00,
2013-03-04 09:32:00,25.0,6.0,-100.00,NW,308,15.0,29.0,44,0.00,,,0.00,354.000000,,2013-03-04 16:32:00,
2013-03-04 09:42:00,25.0,6.0,-100.00,NW,308,15.0,29.0,44,0.00,,,0.00,354.000000,,2013-03-04 16:42:00,
2013-03-04 09:52:00,25.0,6.0,-100.00,NW,308,15.0,29.0,44,0.00,,,0.00,354.000000,,2013-03-04 16:52:00,
2013-03-04 10:22:00,26.0,9.0,-100.00,NW,309,14.0,37.0,48,0.00,,,0.00,512.000000,,2013-03-04 17:22:00,
2013-03-04 10:32:00,26.0,9.0,-100.00,NW,309,14.0,37.0,48,0.00,,,0.00,512.000000,,2013-03-04 17:32:00,
2013-03-04 10:42:00,26.0,9.0,-100.00,NW,309,14.0,37.0,48,0.00,,,0.00,512.000000,,2013-03-04 17:42:00,
2013-03-04 10:52:00,26.0,9.0,-100.00,NW,309,14.0,37.0,48,0.00,,,0.00,512.000000,,2013-03-04 17:52:00,
2013-03-04 11:22:00,26.0,7.0,-100.00,NW,306,17.0,38.0,43,0.00,,,0.00,616.000000,,2013-03-04 18:22:00,
2013-03-04 11:32:00,26.0,7.0,-100.00,NW,306,17.0,38.0,43,0.00,,,0.00,616.000000,,2013-03-04 18:32:00,
2013-03-04 11:42:00,26.0,7.0,-100.00,NW,306,17.0,38.0,43,0.00,,,0.00,616.000000,,2013-03-04 18:42:00,
2013-03-04 11:52:00,26.0,7.0,-100.00,NW,306,17.0,38.0,43,0.00,,,0.00,616.000000,,2013-03-04 18:52:00,
2013-03-04 12:22:00,26.0,7.0,-100.00,WNW,299,18.0,38.0,43,0.00,,,0.00,645.000000,,2013-03-04 19:22:00,
2013-03-04 12:32:00,26.0,7.0,-100.00,WNW,299,18.0,38.0,43,0.00,,,0.00,645.000000,,2013-03-04 19:32:00,
2013-03-04 12:42:00,26.0,7.0,-100.00,WNW,299,18.0,38.0,43,0.00,,,0.00,645.000000,,2013-03-04 19:42:00,
2013-03-04 12:52:00,26.0,7.0,-100.00,WNW,299,18.0,38.0,43,0.00,,,0.00,645.000000,,2013-03-04 19:52:00,
2013-03-04 13:22:00,24.0,2.0,-100.00,NW,306,17.0,40.0,37,0.00,,,0.00,669.000000,,2013-03-04 20:22:00,
2013-03-04 13:32:00,24.0,2.0,-100.00,NW,306,17.0,40.0,37,0.00,,,0.00,669.000000,,2013-03-04 20:32:00,
2013-03-04 13:42:00,24.0,2.0,-100.00,NW,306,17.0,40.0,37,0.00,,,0.00,669.000000,,2013-03-04 20:42:00,
2013-03-04 13:52:00,24.0,2.0,-100.00,NW,306,17.0,40.0,37,0.00,,,0.00,669.000000,,2013-03-04 20:52:00,
2013-03-04 14:22:00,24.0,7.0,-100.00,NW,308,16.0,45.0,47,0.00,,,0.00,662.000000,,2013-03-04 21:22:00,
2013-03-04 14:32:00,24.0,7.0,-100.00,NW,308,16.0,45.0,47,0.00,,,0.00,662.000000,,2013-03-04 21:32:00,
2013-03-04 14:42:00,24.0,7.0,-100.00,NW,308,16.0,45.0,47,0.00,,,0.00,662.000000,,2013-03-04 21:42:00,
2013-03-04 14:52:00,24.0,7.0,-100.00,NW,308,16.0,45.0,47,0.00,,,0.00,662.000000,,2013-03-04 21:52:00,
2013-03-04 15:22:00,22.0,3.0,-100.00,NW,313,20.0,42.0,43,0.00,,,0.00,354.000000,,2013-03-04 22:22:00,
2013-03-04 15:32:00,22.0,3.0,-100.00,NW,313,20.0,42.0,43,0.00,,,0.00,354.000000,,2013-03-04 22:32:00,
2013-03-04 15:42:00,22.0,3.0,-100.00,NW,313,20.0,42.0,43,0.00,,,0.00,354.000000,,2013-03-04 22:42:00,
2013-03-04 15:52:00,22.0,3.0,-100.00,NW,313,20.0,42.0,43,0.00,,,0.00,354.000000,,2013-03-04 22:52:00,
2013-03-04 16:22:00,21.0,7.0,-100.00,NW,310,12.0,38.0,53,0.00,,,0.00,159.000000,,2013-03-04 23:22:00,
2013-03-04 16:32:00,21.0,7.0,-100.00,NW,310,12.0,38.0,53,0.00,,,0.00,159.000000,,2013-03-04 23:32:00,
2013-03-04 16:42:00,21.0,7.0,-100.00,NW,310,12.0,38.0,53,0.00,,,0.00,159.000000,,2013-03-04 23:42:00,
2013-03-04 16:52:00,21.0,7.0,-100.00,NW,310,12.0,38.0,53,0.00,,,0.00,159.000000,,2013-03-04 23:52:00,
2013-03-04 17:21:00,20.0,7.0,-100.00,NW,315,12.0,31.0,56,0.00,,,0.00,133.000000,,2013-03-05 00:21:00,
2013-03-04 17:32:00,20.0,7.0,-100.00,NW,315,12.0,31.0,56,0.00,,,0.00,133.000000,,2013-03-05 00:32:00,
2013-03-04 17:42:00,20.0,7.0,-100.00,NW,315,12.0,31.0,56,0.00,,,0.00,133.000000,,2013-03-05 00:42:00,
2013-03-04 17:51:00,20.0,7.0,-100.00,NW,315,12.0,31.0,56,0.00,,,0.00,133.000000,,2013-03-05 00:51:00,
2013-03-04 18:22:00,18.0,8.0,-100.00,NW,308,9.0,25.0,65,0.00,,,0.00,31.000000,,2013-03-05 01:22:00,
2013-03-04 18:32:00,18.0,8.0,-100.00,NW,308,9.0,25.0,65,0.00,,,0.00,31.000000,,2013-03-05 01:32:00,
2013-03-04 18:42:00,18.0,8.0,-100.00,NW,308,9.0,25.0,65,0.00,,,0.00,31.000000,,2013-03-05 01:42:00,
2013-03-04 18:52:00,18.0,8.0,-100.00,NW,308,9.0,25.0,65,0.00,,,0.00,31.000000,,2013-03-05 01:52:00,
2013-03-04 19:22:00,18.0,9.0,-100.00,WNW,299,11.0,25.0,66,0.00,,,0.00,1.000000,,2013-03-05 02:22:00,
2013-03-04 19:32:00,18.0,9.0,-100.00,WNW,299,11.0,25.0,66,0.00,,,0.00,1.000000,,2013-03-05 02:32:00,
2013-03-04 19:42:00,18.0,9.0,-100.00,WNW,299,11.0,25.0,66,0.00,,,0.00,1.000000,,2013-03-05 02:42:00,
2013-03-04 19:52:00,18.0,9.0,-100.00,WNW,299,11.0,25.0,66,0.00,,,0.00,1.000000,,2013-03-05 02:52:00,
2013-03-04 20:22:00,18.0,8.0,-100.00,NW,309,13.0,28.0,65,0.00,,,0.00,0.000000,,2013-03-05 03:22:00,
2013-03-04 20:32:00,18.0,8.0,-100.00,NW,309,13.0,28.0,65,0.00,,,0.00,0.000000,,2013-03-05 03:32:00,
2013-03-04 20:42:00,18.0,8.0,-100.00,NW,309,13.0,28.0,65,0.00,,,0.00,0.000000,,2013-03-05 03:42:00,
2013-03-04 20:52:00,18.0,8.0,-100.00,NW,309,13.0,28.0,65,0.00,,,0.00,0.000000,,2013-03-05 03:52:00,
2013-03-04 21:22:00,17.0,7.0,-100.00,WNW,296,13.0,37.0,63,0.00,,,0.00,0.000000,,2013-03-05 04:22:00,
2013-03-04 21:32:00,17.0,7.0,-100.00,WNW,296,13.0,37.0,63,0.00,,,0.00,0.000000,,2013-03-05 04:32:00,
2013-03-04 21:42:00,17.0,7.0,-100.00,WNW,296,13.0,37.0,63,0.00,,,0.00,0.000000,,2013-03-05 04:42:00,
2013-03-04 21:52:00,17.0,7.0,-100.00,WNW,296,13.0,37.0,63,0.00,,,0.00,0.000000,,2013-03-05 04:52:00,
2013-03-04 22:22:00,16.0,6.0,-100.00,WNW,299,7.0,28.0,65,0.00,,,0.00,0.000000,,2013-03-05 05:22:00,
2013-03-04 22:32:00,16.0,6.0,-100.00,WNW,299,7.0,28.0,65,0.00,,,0.00,0.000000,,2013-03-05 05:32:00,
2013-03-04 22:42:00,16.0,6.0,-100.00,WNW,299,7.0,28.0,65,0.00,,,0.00,0.000000,,2013-03-05 05:42:00,
2013-03-04 22:52:00,16.0,6.0,-100.00,WNW,299,7.0,28.0,65,0.00,,,0.00,0.000000,,2013-03-05 05:52:00,
2013-03-04 23:22:00,15.0,5.0,-100.00,WNW,299,7.0,17.0,65,0.00,,,0.00,0.000000,,2013-03-05 06:22:00,
2013-03-04 23:32:00,15.0,5.0,-100.00,WNW,299,7.0,17.0,65,0.00,,,0.00,0.000000,,2013-03-05 06:32:00,
2013-03-04 23:42:00,15.0,5.0,-100.00,WNW,299,7.0,17.0,65,0.00,,,0.00,0.000000,,2013-03-05 06:42:00,
2013-03-04 23:52:00,15.0,5.0,-100.00,WNW,299,7.0,17.0,65,0.00,,,0.00,0.000000,,2013-03-05 06:52:00,